sat.trackr.live / text

‹ back to catalog

ZHONGXING-6C

NORAD 44067 · 2019-012A

PAYLOAD ACTIVE UNKNOWN

§ Identity

Operator
Country
PRC
Launch date
2019-03-09
Launch site
XICLF
Launch vehicle
Mass (kg)
RCS (m²)

Purposes: comms

External: N2YO · Heavens-Above · Gunter

§ Orbital elements

Epoch: 2026-05-24T23:13:45.697728Z

Period
1,436.14 min
Inclination
0.1069°
Eccentricity
0.0012709
Mean motion
1.00268791 rev/d
Perigee alt
35,733.8 km
Apogee alt
35,841.0 km
Semi-major
42,165.6 km
B*
0.0000e+0
RAAN
79.7519°
Arg perigee
324.9900°
Mean anomaly
316.6602°
Rev number
2,650

§ Raw data

ZHONGXING-6C1 44067U 19012A   26144.96789002 -.00000338  00000+0  00000+0 0  99952 44067   0.1069  79.7519 0012709 324.9900 316.6602  1.00268791 26504

JSON: /api/v1/satellites/44067 · /tle

For live sub-satellite position, see the globe view (requires WebGL).

§ Visibility from observer

Set your observer location to see the next 7 days of passes ≥ 10°. The values pass through the URL so the page stays shareable.

No JS? Fill the form by hand. The geolocation button needs JavaScript.